Location: Dominion City
(49.1330°N, 97.1500°W)
Time: 15:39:56
(UTC-06:00)

Daily predictions for brighter satellites

Satellite Brightness Start Highest point End
(mag) Time Altitude Azimuth Time Altitude Azimuth Time Altitude Azimuth
AQUARIUS 4.2 17:42:30 10° SSE 17:47:00 80° ENE 17:51:32 10° NNW
Cosmos 1346 Rocket 3.7 17:43:51 10° N 17:47:16 27° ENE 17:50:38 10° SE
Cosmos 1943 3.4 17:44:42 10° SSW 17:50:20 79° WNW 17:56:00 10° NNE
TSX-5 4.4 17:48:15 10° S 17:51:09 30° ESE 17:54:27 10° NE
Meteor 2-16 Rocket 4.5 17:45:00 10° N 17:51:09 82° E 17:57:17 10° SSE
Okean 3 Rocket 3.7 17:48:10 10° S 17:52:36 58° E 17:57:02 10° NNE
Cosmos 1674 3.6 17:50:26 10° SSW 17:54:05 50° WNW 17:57:45 10° N
CZ-4 R/B 1.5 17:50:12 10° SSE 17:54:24 69° ENE 17:58:39 10° N
Cosmos 1697 Rocket 4.3 17:52:34 10° N 17:55:46 15° NNE 17:58:57 10° ENE
Cosmos 2221 3.0 17:51:53 10° NNW 17:56:15 68° W 18:00:35 10° S
Cosmos 1626 3.2 17:54:10 10° SE 17:57:14 25° E 18:00:21 10° NNE
YAOGAN 1 2.7 17:53:25 10° SSE 17:57:39 54° ENE 18:01:53 10° N
RESURS DK-1 4.1 17:55:27 10° N 17:57:54 15° NE 18:00:14 10° ENE
Cosmos 1315 Rocket 3.2 17:55:58 10° SSE 17:59:39 41° E 18:03:22 10° NNE
Cosmos 44 Rocket 3.9 17:56:41 10° S 18:00:56 36° ESE 18:05:18 10° NE
USA 215 3.6 17:54:35 10° ENE 18:00:58 58° NNW 18:07:22 10° W
Cosmos 2237 Rocket 4.5 17:58:54 10° NW 18:01:24 13° NNW 18:03:53 10° N
Ariane Rocket 3.2 17:58:52 10° SSE 18:03:56 78° WSW 18:09:03 10° NNW
ERBS 2.7 18:00:54 10° NW 18:04:11 44° NNE 18:07:27 10° E
NOAA 12 4.4 17:59:51 10° SE 18:04:46 43° ENE 18:09:43 10° N
SL-24 R/B - RUBIN 2 4.4 18:04:57 10° NW 18:09:27 54° WSW 18:13:41 10° SSE
Cosmos 1656 Rocket 3.8 18:05:06 10° NNW 18:10:36 79° WSW 18:16:08 10° SSE
Cosmos 2151 4.2 18:08:39 10° SE 18:11:54 21° E 18:15:10 10° NE
Cosmos 864 Rocket 4.5 18:06:44 10° N 18:13:06 75° E 18:19:24 10° SSE
Cosmos 909 Rocket 4.2 18:09:28 10° NW 18:16:37 64° NE 18:22:52 10° SE
ALOS 2.3 18:13:57 10° SSE 18:18:32 59° ENE 18:23:08 10° N
ERS-2 2.8 18:17:09 10° SE 18:20:28 32° ENE 18:23:48 10° N
Cosmos 1328 3.8 18:16:42 10° S 18:20:41 66° E 18:24:42 10° NNE
Cosmos 1300 3.7 18:19:14 10° NNW 18:22:57 49° W 18:26:38 10° S
USA 161 4.0 18:22:40 10° NW 18:23:33 12° WNW 18:24:26 10° W
Cosmos 1943 Rocket 4.4 18:19:01 10° NW 18:23:48 29° WSW 18:28:29 10° SSW
Cosmos 1777 Rocket 4.2 18:19:09 10° NNW 18:24:25 78° WSW 18:29:40 10° SSE
Cosmos 1515 Rocket 3.9 18:20:20 10° N 18:24:28 40° ENE 18:28:33 10° SE
Cosmos 1400 Rocket 3.7 18:20:58 10° SSW 18:24:57 52° WNW 18:29:02 10° N
Cosmos 1408 Rocket 3.5 18:22:34 10° S 18:26:48 62° E 18:31:05 10° NNE
Cosmos 1340 3.7 18:25:16 10° NNE 18:28:24 24° ENE 18:31:19 11° ESE
Cosmos 1076 Rocket 4.0 18:24:22 10° SSW 18:28:42 65° WNW 18:33:05 10° N
MONITOR-E 4.0 18:26:13 10° SSE 18:29:15 69° ENE 18:32:18 10° N
CZ-4C R/B 4.0 18:30:34 10° ESE 18:31:21 11° ESE 18:31:21 11° ESE
USA 116 4.2 18:31:07 10° NNE 18:35:28 81° WNW 18:40:20 10° SSW
COSMO-SKYMED 1 2.5 18:31:46 10° NNE 18:36:07 66° E 18:40:25 10° S
Cosmos 1703 3.5 18:33:22 10° SSE 18:37:12 47° E 18:41:03 10° NNE
SPOT 3 Rocket 3.4 18:34:08 10° SSE 18:39:15 73° ENE 18:44:26 10° NNW
Geosat 4.0 18:34:24 10° NNE 18:39:28 89° WNW 18:44:30 10° SSW
CZ-2C R/B 3.8 18:34:49 10° NNE 18:39:34 85° WNW 18:44:12 10° SSW
Cosmos 1500 Rocket 4.1 18:36:47 10° SSE 18:40:51 35° E 18:44:28 13° NNE
Lacrosse 5 3.8 18:38:45 10° SE 18:40:56 13° ESE 18:40:56 13° ESE
Resurs 01 Rocket 3.7 18:47:01 12° NNE 18:47:01 12° NNE 18:47:36 10° NNE
SL-16 R/B 4.2 18:43:58 10° N 18:45:28 11° NNE 18:46:14 11° NNE
Cosmos 1437 4.3 18:45:15 10° N 18:46:35 20° NNE 18:46:35 20° NNE
FENGYUN 3A 3.7 18:43:00 10° SSE 18:48:22 81° WSW 18:53:47 10° NNW
MOS 1 4.5 18:44:35 10° SSE 18:50:13 77° WSW 18:55:55 10° NNW
USA 81 4.2 18:46:17 10° SSE 18:51:20 49° E 18:56:25 10° NNE
Cosmos 1328 Rocket 3.7 18:49:13 10° NNW 18:53:36 75° W 18:57:55 10° S
Cosmos 1898 Rocket 3.7 18:49:58 10° NNW 18:55:09 48° ENE 18:59:21 15° SE
Cosmos 1980 Rocket 3.5 18:51:21 10° N 18:55:37 21° NE 18:55:59 21° NE
Cosmos 1743 Rocket 3.5 18:51:53 10° S 18:56:11 62° E 19:00:29 10° NNE
SJ-6B 3.8 18:59:15 27° NNE 18:59:15 27° NNE 19:01:29 10° N
Cosmos 2228 Rocket 3.1 18:53:52 10° N 18:58:29 88° W 19:03:05 10° S
Cosmos 44 3.3 18:54:28 10° SW 18:58:47 68° NW 19:01:35 22° NNE
NOSS 3 (A) 4.5 18:56:30 10° SSW 18:59:18 69° SE 18:59:40 60° E
ATLAS 5 CENTAUR R/B 3.7 18:58:42 10° NW 19:02:47 21° NNE 19:04:17 19° NE
Cosmos 371 Rocket 3.3 19:01:38 10° S 19:06:21 58° ESE 19:08:33 30° NE
Cosmos 990 Rocket 4.3 19:01:36 10° NNW 19:06:38 42° ENE 19:08:02 35° E
TELKOM 3 4.3 19:05:38 10° W 19:07:07 39° W 19:07:07 39° W
Cosmos 2098 Rocket 4.3 19:06:39 10° NNW 19:11:55 64° W 19:18:26 10° S
Meteor 2-15 Rocket 4.4 19:10:40 10° S 19:16:38 58° E 19:22:36 10° NNE
Cosmos 2278 3.8 19:11:32 10° NNW 19:17:10 54° NE 19:19:10 37° ESE
Envisat 3.2 19:16:42 42° E 19:17:14 44° ENE 19:22:02 10° N
DMSP B5D1-3 4.4 19:12:34 10° NNE 19:17:42 89° WNW 19:22:48 10° SSW
Cosmos 2058 3.0 19:13:59 10° SSW 19:18:10 79° W 19:21:59 13° N
Cosmos 1455 3.1 19:16:17 10° NNW 19:20:02 49° W 19:23:43 10° S
H-2A R/B 3.0 19:17:20 10° S 19:21:09 69° WSW 19:25:03 10° NNW
Cosmos 1151 Rocket 3.6 19:17:42 10° NNW 19:22:03 60° W 19:26:22 10° S
Cosmos 1570 Rocket 3.9 19:21:47 10° SSW 19:27:03 71° ESE 19:28:55 40° NE
GEOS 3 Rocket 3.6 19:28:14 39° SE 19:30:20 80° NE 19:35:46 10° NW
COSMOS 2406 3.3 19:25:45 10° SSW 19:31:29 79° WNW 19:34:50 26° NNE
Cosmos 1821 Rocket 4.0 19:25:59 10° NNW 19:32:10 79° W 19:38:24 10° S
Cosmos 2369 3.6 19:26:43 10° NNW 19:32:29 73° ENE 19:34:31 41° SE
Cosmos 1626 4.3 19:29:19 10° SW 19:32:31 26° WNW 19:35:43 10° NNW
Cosmos 1535 Rocket 4.4 19:27:46 10° N 19:33:58 88° W 19:40:05 10° S
Cosmos 1656 3.5 19:29:46 10° NNW 19:35:14 68° ENE 19:36:16 55° ESE
RESURS DK-1 2.4 19:32:26 10° NNW 19:36:12 71° NNW 19:36:12 71° NNW
ERBS 3.9 19:37:38 10° WNW 19:40:41 31° SW 19:40:43 31° SW
Cosmos 1697 Rocket 2.8 19:35:33 10° NNW 19:40:52 54° NE 19:40:52 54° NE
Cosmos 44 Rocket 4.2 19:37:56 10° WSW 19:42:25 42° NW 19:44:03 31° N
USA 215 3.8 19:41:25 35° NE 19:43:24 45° N 19:49:33 10° WNW
Cosmos 1937 Rocket 3.4 19:40:19 10° NNW 19:45:37 85° ENE 19:46:33 62° SSE
Cosmos 1869 4.0 19:43:20 10° NNW 19:46:23 48° NW 19:46:23 48° NW
Cosmos 2298 Rocket 3.9 19:43:34 10° NNW 19:48:55 82° ENE 19:49:20 75° SE
Cosmos 2151 4.2 19:44:52 10° SW 19:48:55 41° WNW 19:52:28 13° N
Meteor 2-10 Rocket 3.3 19:47:15 10° NNW 19:52:20 87° W 19:52:54 71° S
Thor Agena Rocket 3.5 19:52:56 74° SE 19:52:56 74° SE 19:57:50 10° SSW
Cosmos 1934 Rocket 4.5 19:59:56 10° NNW 20:06:11 61° W 20:12:26 10° S
Cosmos 2322 Rocket 4.0 20:03:27 10° NNW 20:05:30 18° N 20:05:30 18° N
Cosmos 1605 Rocket 4.0 20:08:45 10° NNW 20:14:53 74° W 20:17:45 33° S
Cosmos 2150 Rocket 4.5 20:12:32 10° NNW 20:16:49 56° WNW 20:16:49 56° WNW
CZ-4C R/B 3.4 20:14:01 10° SSW 20:16:36 30° SSW 20:16:36 30° SSW
Resurs 01 Rocket 4.1 20:24:34 14° NNW 20:24:34 14° NNW 20:25:14 10° NNW
Lacrosse 5 3.5 20:18:01 10° SW 20:20:11 25° SSW 20:20:11 25° SSW
SL-16 R/B 4.1 20:26:22 10° NNW 20:28:06 18° N 20:28:06 18° N
Cosmos 1980 Rocket 3.5 20:34:47 10° NNW 20:37:46 33° NNW 20:37:46 33° NNW
ATLAS 5 CENTAUR R/B 3.9 20:43:20 10° NW 20:45:50 26° NNW 20:45:50 26° NNW
Cosmos 2344 4.3 21:04:39 10° NW 21:14:13 75° NNE 21:14:13 75° NNE
